Tracking 30701 objects as of 14-Jun-2025
HD Live streaming from Space Station
objects crossing your sky now

STARLINK-4695

Track STARLINK-4695 now!
10-day predictions
STARLINK-4695 is classified as:


NORAD ID: 53718
Int'l Code: 2022-107U
Perigee: 546.0 km
Apogee: 547.7 km
Inclination: 53.2 °
Period: 95.4 minutes
Semi major axis: 6917 km
RCS: Unknown
Launch date: September 5, 2022
Source: United States (US)
Launch site: AIR FORCE EASTERN TEST RANGE (AFETR)
Your satellite tracking list
Your tracking list is empty




NASA's NSSDC Master Catalog

Two Line Element Set (TLE):
1 53718U 22107U   25165.31135888  .00001221  00000-0  94800-4 0  9993
2 53718  53.2180  19.1809 0001216  80.1703 279.9426 15.08846541153888
Source of the keplerian elements: AFSPC